�N����,����,�~����,�C��,���x,�C��,����,���ϕ���,�ő�u�ԕ���,�ő厞����,���˗�,�I�_���x,�n�����x,�ő啗���N��,DTYPE
"23/04/24","00:10",0.0,11.7,54.1,1017.5,303.7,2.5,4.2,316.1,0.00,2.8,14.6,"00:09:04",1
"23/04/24","00:20",0.0,11.7,54.5,1017.8,311.5,2.7,3.6,311.2,0.00,2.9,14.5,"00:17:18",1
"23/04/24","00:30",0.0,11.8,55.7,1017.8,291.6,1.8,2.5,286.6,0.00,3.3,14.6,"00:23:04",1
"23/04/24","00:40",0.0,11.7,56.2,1017.5,303.1,2.5,3.7,328.9,0.00,3.3,14.6,"00:33:12",1
"23/04/24","00:50",0.0,11.7,56.6,1017.8,299.9,2.6,4.0,323.1,0.00,3.4,14.4,"00:41:58",1
"23/04/24","01:00",0.0,11.7,57.6,1017.8,303.7,2.2,3.4,306.7,0.00,3.7,14.4,"00:57:38",1
"23/04/24","01:10",0.0,11.5,56.8,1017.5,296.0,1.5,2.6,321.5,0.00,3.3,14.5,"01:03:34",1
"23/04/24","01:20",0.0,11.7,54.5,1017.8,305.9,1.5,2.9,306.3,0.00,2.9,14.3,"01:11:38",1
"23/04/24","01:30",0.0,11.8,55.0,1017.8,306.4,1.8,4.3,331.1,0.00,3.1,14.4,"01:26:06",1
"23/04/24","01:40",0.0,11.8,52.6,1017.5,301.7,2.3,3.3,270.7,0.00,2.5,14.2,"01:31:08",1
"23/04/24","01:50",0.0,11.7,51.5,1017.5,309.9,2.0,3.3,321.6,0.00,2.1,14.2,"01:49:20",1
"23/04/24","02:00",0.0,11.7,50.6,1017.5,283.5,2.2,4.1,298.0,0.00,1.8,14.4,"01:54:20",1
"23/04/24","02:10",0.0,11.6,50.4,1017.3,313.5,2.1,2.6,322.8,0.00,1.7,14.2,"02:00:40",1
"23/04/24","02:20",0.0,11.7,51.0,1017.5,298.1,2.7,4.2,329.6,0.00,1.9,14.1,"02:14:36",1
"23/04/24","02:30",0.0,11.6,51.5,1016.8,306.5,2.1,2.9,306.6,0.00,2.0,14.2,"02:29:50",1
"23/04/24","02:40",0.0,11.5,51.0,1017.3,307.7,2.6,3.4,314.6,0.00,1.8,14.3,"02:34:10",1
"23/04/24","02:50",0.0,11.6,49.6,1017.3,316.4,3.4,4.7,341.5,0.00,1.5,13.9,"02:45:46",1
"23/04/24","03:00",0.0,11.5,49.3,1017.5,307.7,2.6,4.0,320.8,0.00,1.3,14.2,"02:50:16",1
"23/04/24","03:10",0.0,11.5,48.3,1017.1,307.7,2.8,3.7,305.1,0.00,1.0,14.1,"03:04:32",1
"23/04/24","03:20",0.0,11.5,47.1,1017.3,302.9,3.0,4.0,295.8,0.00,0.7,14.1,"03:17:02",1
"23/04/24","03:30",0.0,11.3,47.3,1017.3,313.4,2.8,3.4,322.1,0.00,0.5,14.1,"03:28:10",1
"23/04/24","03:40",0.0,11.1,46.0,1017.1,316.0,3.0,3.9,325.2,0.00,0.0,14.0,"03:32:06",1
"23/04/24","03:50",0.0,11.1,44.8,1017.3,316.9,3.2,4.3,312.1,0.00,-0.4,14.2,"03:41:12",1
"23/04/24","04:00",0.0,11.1,43.0,1017.5,323.7,3.9,4.8,304.1,0.00,-1.0,13.9,"03:58:20",1
"23/04/24","04:10",0.0,11.1,42.3,1017.5,325.8,3.7,5.1,330.3,0.00,-1.2,14.0,"04:05:58",1
"23/04/24","04:20",0.0,10.9,41.6,1018.0,318.7,3.4,5.1,322.2,0.00,-1.6,14.1,"04:10:58",1
"23/04/24","04:30",0.0,11.0,40.2,1018.0,318.6,3.6,4.7,332.4,0.00,-2.0,14.1,"04:23:30",1
"23/04/24","04:40",0.0,11.0,40.0,1018.0,316.9,3.2,5.4,341.6,0.00,-2.0,13.7,"04:31:00",1
"23/04/24","04:50",0.0,10.9,40.7,1017.5,312.1,2.7,3.4,317.8,0.00,-1.9,14.0,"04:44:42",1
"23/04/24","05:00",0.0,10.4,44.6,1017.5,317.9,2.5,3.2,326.5,0.00,-1.1,13.9,"04:51:20",1
"23/04/24","05:10",0.0,10.3,46.1,1017.8,318.5,2.8,4.1,317.8,0.00,-0.7,13.9,"05:07:54",1
"23/04/24","05:20",0.0,10.3,45.0,1017.8,310.5,2.6,3.3,311.7,0.00,-1.1,13.6,"05:18:16",1
"23/04/24","05:30",0.0,10.3,47.1,1018.0,316.1,3.0,3.9,332.7,0.00,-0.4,13.9,"05:22:56",1
"23/04/24","05:40",0.0,9.7,48.9,1018.0,316.1,3.1,4.4,309.1,0.00,-0.5,13.9,"05:36:24",1
"23/04/24","05:50",0.0,9.8,47.9,1018.0,310.2,2.8,4.0,325.6,0.00,-0.7,13.8,"05:49:04",1
"23/04/24","06:00",0.0,9.9,47.4,1018.2,309.1,2.8,3.7,323.4,0.00,-0.7,13.5,"05:52:32",1
"23/04/24","06:10",0.0,9.7,48.6,1018.0,318.0,3.2,4.0,325.9,0.00,-0.6,13.5,"06:01:52",1
"23/04/24","06:20",0.0,9.8,49.4,1018.2,313.2,2.5,3.6,319.8,0.00,-0.2,13.6,"06:16:16",1
"23/04/24","06:30",0.0,9.5,50.0,1018.5,315.5,2.6,3.5,323.5,0.00,-0.4,13.7,"06:26:24",1
"23/04/24","06:40",0.0,9.3,52.2,1018.7,321.2,2.6,3.3,336.2,0.00,0.0,13.5,"06:34:24",1
"23/04/24","06:50",0.0,9.1,53.2,1018.7,307.4,2.3,3.2,299.9,0.01,0.1,13.6,"06:44:48",1
"23/04/24","07:00",0.0,9.4,51.3,1018.7,305.4,2.3,4.3,328.0,0.03,-0.1,13.3,"06:51:12",1
"23/04/24","07:10",0.0,10.0,47.9,1018.7,308.5,2.2,3.1,267.6,0.03,-0.5,13.4,"07:06:44",1
"23/04/24","07:20",0.0,10.3,48.3,1019.2,306.4,2.7,3.7,338.6,0.01,-0.1,13.5,"07:12:12",1
"23/04/24","07:30",0.0,10.7,45.8,1019.2,297.8,2.3,3.2,310.2,0.02,-0.5,13.5,"07:27:12",1
"23/04/24","07:40",0.0,11.0,43.6,1019.0,301.7,2.7,3.7,337.5,0.03,-0.9,13.3,"07:33:20",1
"23/04/24","07:50",0.0,11.2,45.2,1019.2,307.4,2.5,3.7,319.9,0.03,-0.2,13.4,"07:44:22",1
"23/04/24","08:00",0.0,11.3,40.8,1019.7,308.9,2.6,3.7,313.7,0.03,-1.5,13.4,"07:51:20",1
"23/04/24","08:10",0.0,11.6,43.8,1019.7,305.1,2.5,3.5,321.3,0.04,-0.3,13.4,"08:01:34",1
"23/04/24","08:20",0.0,11.8,46.2,1019.7,293.2,1.8,2.9,309.5,0.06,0.7,13.5,"08:10:40",1
"23/04/24","08:30",0.0,12.0,42.0,1020.1,310.6,2.1,3.9,336.3,0.08,-0.5,13.5,"08:28:12",1
"23/04/24","08:40",0.0,12.3,38.7,1019.9,306.6,1.8,2.8,315.4,0.08,-1.3,13.3,"08:39:10",1
"23/04/24","08:50",0.0,12.6,35.0,1019.9,320.1,1.8,3.3,330.7,0.07,-2.4,13.3,"08:40:48",1
"23/04/24","09:00",0.0,12.7,34.7,1020.1,315.5,2.3,3.9,308.9,0.09,-2.4,13.2,"08:58:58",1
"23/04/24","09:10",0.0,12.7,33.8,1020.1,310.6,2.2,3.3,318.3,0.08,-2.8,13.4,"09:00:40",1
"23/04/24","09:20",0.0,13.0,33.3,1020.1,324.9,1.8,3.3,334.7,0.09,-2.7,13.4,"09:15:52",1
"23/04/24","09:30",0.0,13.2,32.3,1020.1,315.0,2.0,3.3,303.7,0.10,-3.0,13.4,"09:20:24",1
"23/04/24","09:40",0.0,13.2,29.5,1020.1,333.2,2.2,4.9,319.1,0.11,-4.2,13.6,"09:35:42",1
"23/04/24","09:50",0.0,13.5,30.0,1019.9,316.8,2.1,3.9,314.4,0.12,-3.7,13.3,"09:41:02",1
"23/04/24","10:00",0.0,13.5,27.5,1019.7,328.5,2.2,4.8,319.0,0.13,-4.8,13.5,"09:53:32",1
"23/04/24","10:10",0.0,13.7,28.1,1019.9,337.1,2.1,4.3,337.4,0.12,-4.4,13.5,"10:07:54",1
"23/04/24","10:20",0.0,13.5,27.3,1020.1,336.3,3.0,5.0,328.4,0.12,-4.9,13.5,"10:17:26",1
"23/04/24","10:30",0.0,13.7,24.7,1019.9,335.3,2.2,4.2,322.1,0.12,-6.1,13.4,"10:22:54",1
"23/04/24","10:40",0.0,14.0,25.8,1019.9,342.6,1.7,3.5,348.7,0.13,-5.3,13.3,"10:34:36",1
"23/04/24","10:50",0.0,13.8,25.2,1020.1,333.2,2.7,5.0,324.1,0.10,-5.7,13.5,"10:41:02",1
"23/04/24","11:00",0.0,13.8,24.8,1020.1,348.0,2.1,5.7,348.1,0.12,-5.9,13.6,"10:51:34",1
"23/04/24","11:10",0.0,13.9,26.1,1019.7,337.7,2.0,3.7,339.4,0.12,-5.2,13.8,"11:08:28",1
"23/04/24","11:20",0.0,13.8,25.8,1019.7,340.9,2.6,4.1,329.1,0.12,-5.4,13.5,"11:14:18",1
"23/04/24","11:30",0.0,14.0,25.7,1019.4,340.3,2.6,5.4,339.8,0.16,-5.3,13.6,"11:29:16",1
"23/04/24","11:40",0.0,14.6,24.1,1019.9,344.4,1.8,4.2,321.9,0.20,-5.6,13.6,"11:39:46",1
"23/04/24","11:50",0.0,14.5,23.6,1019.4,326.2,2.5,4.3,331.7,0.21,-6.0,13.7,"11:49:02",1
"23/04/24","12:00",0.0,15.1,23.4,1019.7,336.9,2.0,3.9,333.4,0.23,-5.6,13.7,"11:51:04",1
"23/04/24","12:10",0.0,15.1,21.6,1019.4,346.8,2.3,5.2,29.6,0.24,-6.7,13.9,"12:04:08",1
"23/04/24","12:20",0.0,15.6,24.0,1019.0,353.6,2.3,4.8,347.2,0.30,-4.8,13.7,"12:19:04",1
"23/04/24","12:30",0.0,15.9,25.0,1018.7,340.9,2.7,7.3,321.9,0.30,-4.1,13.9,"12:23:12",1
"23/04/24","12:40",0.0,15.9,23.9,1018.7,333.4,3.1,6.4,318.8,0.30,-4.6,13.8,"12:39:12",1
"23/04/24","12:50",0.0,16.0,24.3,1018.5,340.0,3.1,5.9,346.8,0.28,-4.3,13.8,"12:48:00",1
"23/04/24","13:00",0.0,16.3,23.9,1018.2,339.9,3.1,5.7,330.9,0.29,-4.3,14.1,"12:51:12",1
"23/04/24","13:10",0.0,16.5,23.7,1018.0,348.9,3.2,5.6,342.7,0.33,-4.3,13.9,"13:01:28",1
"23/04/24","13:20",0.0,16.2,24.6,1018.2,351.9,3.1,6.2,340.6,0.28,-4.0,13.9,"13:10:40",1
"23/04/24","13:30",0.0,15.9,25.3,1017.8,338.3,2.6,6.0,296.1,0.17,-3.9,14.0,"13:25:20",1
"23/04/24","13:40",0.0,15.6,27.0,1017.8,343.5,3.7,7.0,344.5,0.15,-3.3,14.3,"13:35:44",1
"23/04/24","13:50",0.0,15.6,28.7,1017.8,339.2,3.5,5.7,334.2,0.15,-2.5,14.0,"13:40:32",1
"23/04/24","14:00",0.0,15.8,28.5,1018.0,340.3,3.0,5.6,353.1,0.18,-2.4,14.0,"13:58:40",1
"23/04/24","14:10",0.0,15.4,26.7,1018.0,332.4,3.6,6.8,319.5,0.16,-3.6,14.2,"14:04:08",1
"23/04/24","14:20",0.0,15.3,26.6,1017.8,339.7,3.7,6.8,342.2,0.17,-3.7,14.2,"14:10:08",1
"23/04/24","14:30",0.0,15.5,28.2,1017.8,341.1,3.0,5.5,319.9,0.21,-2.8,14.2,"14:26:48",1
"23/04/24","14:40",0.0,14.8,29.0,1017.8,347.0,4.1,8.3,352.7,0.16,-3.0,14.2,"14:38:20",1
"23/04/24","14:50",0.0,14.8,30.5,1017.8,343.9,3.4,5.6,345.5,0.16,-2.3,14.3,"14:49:38",1
"23/04/24","15:00",0.0,14.8,34.0,1018.0,343.3,2.7,5.0,348.2,0.15,-0.9,14.1,"14:55:48",1
"23/04/24","15:10",0.0,14.7,34.4,1017.5,337.6,2.6,4.9,333.9,0.15,-0.8,14.4,"15:03:18",1
"23/04/24","15:20",0.0,14.1,34.7,1017.8,329.6,3.9,5.8,315.7,0.14,-1.2,14.0,"15:17:04",1
"23/04/24","15:30",0.0,14.1,35.1,1018.0,315.5,3.5,5.7,346.4,0.13,-1.0,14.2,"15:25:30",1
"23/04/24","15:40",0.0,14.1,34.7,1017.8,335.7,3.6,6.3,347.0,0.12,-1.2,14.3,"15:38:26",1
"23/04/24","15:50",0.0,14.3,35.6,1018.2,347.3,2.7,5.8,350.4,0.13,-0.7,14.2,"15:46:18",1
"23/04/24","16:00",0.0,14.4,36.4,1018.0,330.0,3.0,5.4,331.9,0.14,-0.3,14.3,"15:56:02",1
"23/04/24","16:10",0.0,14.4,34.7,1017.8,332.1,3.2,5.4,336.6,0.12,-0.9,14.3,"16:09:36",1
"23/04/24","16:20",0.0,14.5,35.8,1017.8,337.9,3.1,5.7,330.8,0.12,-0.4,14.2,"16:12:10",1
"23/04/24","16:30",0.0,14.4,34.5,1017.8,338.6,2.7,5.7,349.5,0.11,-1.0,14.2,"16:28:00",1
"23/04/24","16:40",0.0,14.1,36.1,1018.0,335.4,4.0,5.6,345.3,0.09,-0.7,14.2,"16:30:36",1
"23/04/24","16:50",0.0,13.7,37.0,1018.2,337.2,3.7,6.8,351.4,0.08,-0.7,14.2,"16:47:18",1
"23/04/24","17:00",0.0,13.6,37.8,1018.0,331.0,3.0,6.2,331.0,0.07,-0.5,14.3,"16:51:02",1
"23/04/24","17:10",0.0,13.6,38.9,1018.2,342.0,2.7,5.1,324.5,0.07,-0.1,14.2,"17:02:06",1
"23/04/24","17:20",0.0,13.5,40.6,1017.8,335.1,3.1,6.5,355.0,0.06,0.4,14.2,"17:12:08",1
"23/04/24","17:30",0.0,13.2,39.8,1018.0,341.3,3.1,7.1,330.2,0.05,-0.1,14.2,"17:24:36",1
"23/04/24","17:40",0.0,13.1,41.4,1018.5,321.4,3.0,5.7,318.2,0.04,0.3,14.3,"17:39:48",1
"23/04/24","17:50",0.0,13.0,40.6,1017.8,331.8,3.6,6.2,340.2,0.05,0.0,14.3,"17:45:46",1
"23/04/24","18:00",0.0,13.1,41.4,1018.0,323.9,2.2,4.8,335.0,0.06,0.3,13.9,"17:51:00",1
"23/04/24","18:10",0.0,13.0,41.1,1018.5,331.5,2.2,4.8,317.4,0.05,0.1,14.2,"18:04:10",1
"23/04/24","18:20",0.0,12.9,40.6,1018.2,337.4,2.5,5.2,338.7,0.03,-0.1,14.0,"18:13:30",1
"23/04/24","18:30",0.0,12.8,40.2,1018.2,329.2,3.6,5.6,351.5,0.04,-0.3,14.0,"18:26:46",1
"23/04/24","18:40",0.0,12.7,40.6,1019.0,335.9,3.1,5.2,339.7,0.03,-0.3,14.2,"18:39:12",1
"23/04/24","18:50",0.0,12.5,40.9,1018.2,329.5,3.2,6.2,15.8,0.01,-0.4,14.1,"18:40:34",1
"23/04/24","19:00",0.0,12.3,42.8,1019.0,332.5,3.4,5.6,329.3,0.00,0.1,14.1,"18:50:54",1
"23/04/24","19:10",0.0,12.1,44.4,1018.7,324.7,3.2,4.9,294.6,0.00,0.4,14.2,"19:05:56",1
"23/04/24","19:20",0.0,11.9,46.0,1018.5,319.3,2.7,4.3,344.8,0.00,0.7,13.9,"19:18:24",1
"23/04/24","19:30",0.0,11.7,47.7,1018.7,324.8,3.2,4.9,324.8,0.00,1.0,14.0,"19:23:34",1
"23/04/24","19:40",0.0,11.6,49.1,1018.5,332.7,3.6,5.9,331.2,0.00,1.3,13.8,"19:37:10",1
"23/04/24","19:50",0.0,11.6,50.0,1019.0,329.1,3.1,6.4,320.4,0.00,1.6,14.0,"19:40:40",1
"23/04/24","20:00",0.0,11.5,50.2,1018.5,323.8,3.5,5.8,330.9,0.00,1.5,13.8,"19:55:30",1
"23/04/24","20:10",0.0,11.4,50.5,1018.7,317.8,3.1,4.8,322.3,0.00,1.5,13.8,"20:04:42",1
"23/04/24","20:20",0.0,11.3,50.9,1019.0,309.7,2.5,4.2,308.3,0.00,1.6,13.8,"20:13:06",1
"23/04/24","20:30",0.0,11.2,51.0,1019.2,302.8,2.1,4.0,314.7,0.00,1.5,13.9,"20:27:02",1
"23/04/24","20:40",0.0,11.1,51.4,1018.7,303.3,2.3,4.0,322.1,0.00,1.5,13.9,"20:36:20",1
"23/04/24","20:50",0.0,11.0,52.2,1019.0,314.2,2.1,3.5,324.5,0.00,1.6,13.8,"20:48:30",1
"23/04/24","21:00",0.0,11.0,52.3,1019.2,325.7,2.8,5.7,342.7,0.00,1.7,13.6,"20:50:32",1
"23/04/24","21:10",0.0,11.1,52.1,1019.2,323.4,3.4,5.0,318.8,0.00,1.7,13.5,"21:02:16",1
"23/04/24","21:20",0.0,11.0,52.5,1019.0,321.8,3.1,4.4,326.8,0.00,1.7,13.7,"21:12:20",1
"23/04/24","21:30",0.0,11.0,53.1,1019.0,328.7,3.5,6.0,327.8,0.00,1.9,13.5,"21:26:38",1
"23/04/24","21:40",0.0,10.9,53.9,1018.7,329.5,3.2,4.9,326.0,0.00,2.0,13.5,"21:31:36",1
"23/04/24","21:50",0.0,10.9,53.9,1018.7,328.6,3.2,4.8,333.7,0.00,2.0,13.5,"21:46:54",1
"23/04/24","22:00",0.0,10.8,54.5,1019.2,333.0,3.4,5.8,346.0,0.00,2.0,13.4,"21:53:04",1
"23/04/24","22:10",0.0,10.7,55.1,1019.2,330.6,3.7,6.6,336.0,0.00,2.1,13.5,"22:06:18",1
"23/04/24","22:20",0.0,10.7,55.5,1019.2,330.6,3.2,4.7,351.1,0.00,2.2,13.5,"22:12:24",1
"23/04/24","22:30",0.0,10.6,56.1,1019.4,332.1,3.5,7.0,342.6,0.00,2.3,13.4,"22:26:04",1
"23/04/24","22:40",0.0,10.5,56.9,1018.7,327.9,3.0,5.7,322.7,0.00,2.4,13.4,"22:31:04",1
"23/04/24","22:50",0.0,10.3,57.1,1019.0,321.5,1.7,3.4,310.3,0.00,2.2,13.5,"22:40:08",1
"23/04/24","23:00",0.0,10.1,57.5,1018.7,288.2,1.5,2.2,299.5,0.00,2.1,13.4,"22:55:36",1
"23/04/24","23:10",0.0,9.9,58.0,1019.2,318.3,1.2,1.8,324.1,0.00,2.1,13.2,"23:02:56",1
"23/04/24","23:20",0.0,9.8,59.3,1018.5,292.6,1.5,2.0,308.9,0.00,2.3,13.3,"23:18:08",1
"23/04/24","23:30",0.0,9.7,60.4,1018.7,276.4,1.7,2.2,264.0,0.00,2.5,13.4,"23:28:40",1
"23/04/24","23:40",0.0,9.5,61.0,1018.5,289.9,1.7,2.5,301.1,0.00,2.4,13.4,"23:38:32",1
"23/04/24","23:50",0.0,9.2,62.1,1018.5,302.4,2.0,2.4,310.8,0.00,2.4,13.1,"23:41:36",1
"23/04/24","24:00",0.0,9.0,63.3,1018.2,290.9,1.8,2.4,284.3,0.00,2.4,13.3,"23:57:36",1
